Flag for India Weather past 2 weeks in Chandigarh, Chandigarh, India

Now
43 °F

Fog.


Feels Like: 43 °F
Forecast: 40 / 66 °F
Wind: No wind

Location: Amritsar Airport

Current Time: Dec 25, 2014 at 9:09:12 AM

Latest Report: Dec 25, 2014 at 8:00 AM


Visibility: 0 mi

Pressure: 30.12 "Hg

Humidity: 100%

Dew point: 43 °F

Location of ChandigarhLocation

Historic Weather in Chandigarh — Graph

°F

Chandigarh temperature yesterday

Maximum temperature yesterday: 57 °F (at 3:30 PM)
Minimum temperature yesterday: 41 °F (at 9:00 AM)
Average temperature yesterday: 49 °F

Past Weeks' High & Low Weather Summary

 TemperatureHumidityPressure
High72 °F (Dec 10, 2:00 PM)100% (Dec 10, 7:30 AM)30.27 "Hg (Dec 10, 7:30 AM)
Low37 °F (Dec 16, 7:30 AM)23% (Dec 10, 1:00 PM)29.71 "Hg (Dec 22, 1:30 PM)
Average51 °F83%30.09 "Hg
* Reported Dec 10 7:30 AM — Dec 25 7:30 AM, Chandigarh, Weather by CustomWeather, © 2014

Note: Actual official high and low records may vary slightly from our data, if they occured in-between our weather recording intervals... More about our weather records

Advertising

Chandigarh weather history for previous 24 hours

 ConditionsComfort  
Time TempWeatherWind HumidityBarometerVisibility
7:30 AM
Dec 25
43 °FFog.No wind100%30.09 "Hg0 mi
7:00 AM43 °FFog.No wind100%30.09 "Hg0 mi
6:30 AM43 °FFog.No wind100%30.09 "Hg0 mi
6:00 AM43 °FFog.No wind100%30.09 "Hg0 mi
5:30 AM43 °FFog.No wind100%30.09 "Hg0 mi
5:00 AM43 °FFog.No wind100%30.09 "Hg0 mi
4:30 AM43 °FFog.No wind100%30.09 "Hg0 mi
4:00 AM43 °FFog.No wind100%30.09 "Hg0 mi
3:00 AM43 °FFog.No wind100%30.09 "Hg0 mi
2:30 AM43 °FFog.No wind100%30.12 "Hg0 mi
1:00 AM43 °FFog.No wind100%30.12 "Hg0 mi
12:30 AM41 °FFog.No wind100%30.15 "Hg0 mi
12:00 AM43 °FFog.No wind100%30.12 "Hg0 mi
11:30 PM
Dec 24
43 °FFog.No wind100%30.12 "Hg0 mi
11:00 PM43 °FFog.No wind100%30.15 "Hg0 mi
10:30 PM43 °FFog.No wind100%30.15 "Hg0 mi
10:00 PM43 °FFog.No wind100%30.15 "Hg0 mi
9:30 PM43 °FFog.No wind100%30.15 "Hg0 mi
9:00 PM43 °FFog.No wind100%30.15 "Hg0 mi
8:30 PM43 °FFog.No wind100%30.15 "Hg0 mi
7:30 PM48 °FFog.No wind100%30.12 "Hg0 mi
7:00 PM50 °FFog.No wind100%30.12 "Hg0 mi
6:30 PM50 °FFog.No wind100%30.12 "Hg1 mi
6:00 PM52 °FFog.No wind94%30.12 "Hg1 mi
5:30 PM54 °FFog.No wind88%30.12 "Hg1 mi
5:00 PM55 °FFog.No wind82%30.12 "Hg1 mi
4:30 PM57 °FFog.No wind77%30.12 "Hg1 mi
4:00 PM57 °FFog.No wind77%30.12 "Hg1 mi
3:30 PM57 °FFog.No wind72%30.12 "Hg1 mi
3:00 PM55 °FFog.No wind77%30.12 "Hg1 mi
2:30 PM55 °FFog.No wind77%30.12 "Hg1 mi
1:30 PM54 °FFog.No wind82%30.15 "Hg1 mi
1:00 PM52 °FFog.1 mph94%30.18 "Hg0 mi
10:30 AM45 °FFog.No wind100%30.18 "Hg0 mi
10:00 AM45 °FFog.No wind100%30.18 "Hg0 mi
9:00 AM41 °FFog.No wind100%30.15 "Hg0 mi
Weather by CustomWeather, © 2014

See weather overviewHow to use our weather pages